Weather History for Nashua, NH

Change the Weather History Date:

Tuesday, December 4, 2012

  Actual Average Record
Temperature  
Mean Temperature 43 °F -  
Max Temperature 57 °F 40 °F 68 °F (1982)
Min Temperature 29 °F 21 °F 0 °F (1949)
Degree Days  
Heating Degree Days 22    
Moisture  
Dew Point 37 °F    
Average Humidity 93    
Maximum Humidity 100    
Minimum Humidity 82    
Precipitation  
Precipitation 0.00 in - - ()
Sea Level Pressure  
Sea Level Pressure 30.24 in    
Wind  
Wind Speed 1 mph (NW)    
Max Wind Speed 7 mph    
Max Gust Speed -    
Visibility 5 miles    
Events Fog    
Averages and records for this station are not official NWS values.
T = Trace of Precipitation, MM = Missing Value Source: NWS Daily Summary

Daily Weather History Graph

Daily Weather History Graph

Search for Another Location

Airport:

Trip Planner

Search our weather history database for the weather conditions in past years. The results will help you decide how hot, cold, wet, or windy it might be!

Date:

Astronomy

Dec. 04, 2012 Rise Set
Actual Time 7:00 AM EST 4:12 PM EST
Civil Twilight 6:28 AM EST 4:44 PM EST
Nautical Twilight 5:53 AM EST 5:19 PM EST
Astronomical Twilight 5:19 AM EST 5:53 PM EST
Moon 10:02 PM EST (12/4) 10:48 AM EST (12/4)
Length of Visible Light 10h 15m
Length of Day
9h 11m
Waning Gibbous, 69% of the Moon is Illuminated
Dec 4
Waning Gibbous
Dec 6
Last Quarter
Dec 13
New
Dec 20
First Quarter
Dec 28
Full

Hourly Weather History & Observations

Time (EST) Temp. Windchill Dew Point Humidity Pressure Visibility Wind Dir Wind Speed Gust Speed Precip Events Conditions
12:51 AM 30.0 °F 25.2 °F 28.0 °F 92% 30.32 in 9.0 mi NW 4.6 mph - N/A   Clear
1:51 AM 29.1 °F - 27.1 °F 92% 30.33 in 10.0 mi Calm Calm - N/A   Clear
2:09 AM 30.2 °F - 28.4 °F 93% 30.32 in 10.0 mi Calm Calm - N/A   Mostly Cloudy
2:51 AM 31.1 °F - 29.1 °F 92% 30.32 in 10.0 mi Calm Calm - N/A   Mostly Cloudy
3:36 AM 32.0 °F - 30.2 °F 93% 30.31 in 10.0 mi Calm Calm - N/A   Overcast
3:51 AM 32.0 °F - 30.0 °F 92% 30.32 in 10.0 mi Calm Calm - N/A   Overcast
4:27 AM 33.8 °F - 30.2 °F 87% 30.31 in 10.0 mi Calm Calm - N/A   Overcast
4:51 AM 32.9 °F - 31.1 °F 93% 30.32 in 10.0 mi Calm Calm - N/A   Overcast
5:10 AM 33.8 °F - 30.2 °F 87% 30.31 in 10.0 mi Calm Calm - N/A   Overcast
5:51 AM 34.0 °F - 32.0 °F 92% 30.33 in 10.0 mi Calm Calm - N/A   Overcast
6:51 AM 34.9 °F - 32.9 °F 92% 30.34 in 5.0 mi Calm Calm - N/A   Overcast
7:00 AM 35.6 °F - 33.8 °F 93% 30.32 in 2.0 mi Calm Calm - N/A   Mostly Cloudy
7:20 AM 33.8 °F - 33.8 °F 100% 30.32 in - Calm Calm - N/A   Mostly Cloudy
7:27 AM 33.8 °F - 33.8 °F 100% 30.32 in 0.2 mi Calm Calm - N/A Fog Fog
7:39 AM 33.8 °F - 33.8 °F 100% 30.32 in 0.2 mi Calm Calm - N/A Fog Fog
7:51 AM 34.9 °F - 32.9 °F 92% 30.34 in 0.2 mi Calm Calm - N/A Fog Fog
8:17 AM 35.6 °F - 33.8 °F 93% 30.31 in 0.2 mi Calm Calm - 0.00 in Fog Fog
8:28 AM 35.6 °F - 33.8 °F 93% 30.31 in 0.2 mi Calm Calm - 0.00 in Fog Fog
8:51 AM 36.0 °F - 34.9 °F 96% 30.33 in 0.2 mi Calm Calm - 0.00 in Fog Fog
9:29 AM 35.6 °F - 35.6 °F 100% 30.32 in 0.2 mi Calm Calm - N/A Fog Fog
9:51 AM 36.0 °F - 34.9 °F 96% 30.33 in 0.2 mi Calm Calm - N/A Fog Fog
10:04 AM 35.6 °F - 35.6 °F 100% 30.31 in 0.5 mi Calm Calm - N/A Fog Fog
10:44 AM 37.4 °F - 35.6 °F 93% 30.29 in 0.8 mi Calm Calm - N/A   Mist
10:51 AM 36.9 °F - 36.0 °F 97% 30.30 in 0.8 mi Calm Calm - N/A   Mist
10:59 AM 37.4 °F - 35.6 °F 93% 30.28 in 1.2 mi Calm Calm - N/A   Mostly Cloudy
11:17 AM 37.4 °F - 35.6 °F 93% 30.26 in 1.5 mi Calm Calm - N/A   Mostly Cloudy
11:33 AM 37.4 °F - 37.4 °F 100% 30.25 in 1.2 mi Calm Calm - N/A   Mostly Cloudy
11:51 AM 37.9 °F - 36.9 °F 96% 30.27 in 1.5 mi Calm Calm - N/A   Mostly Cloudy
12:12 PM 39.2 °F - 37.4 °F 93% 30.24 in 2.0 mi Calm Calm - N/A   Clear
12:20 PM 39.2 °F - 37.4 °F 93% 30.24 in 2.5 mi Calm Calm - N/A   Partly Cloudy
12:51 PM 39.9 °F - 37.9 °F 93% 30.24 in 3.0 mi Calm Calm - N/A   Overcast
1:04 PM 39.2 °F - 39.2 °F 100% 30.21 in 2.5 mi Calm Calm - N/A   Overcast
1:51 PM 41.0 °F - 39.9 °F 96% 30.21 in 2.5 mi Calm Calm - N/A   Overcast
2:51 PM 43.0 °F - 41.0 °F 93% 30.19 in 2.5 mi Calm Calm - N/A   Overcast
3:51 PM 43.9 °F - 41.0 °F 90% 30.17 in 2.5 mi Calm Calm - N/A   Overcast
4:25 PM 44.6 °F - 42.8 °F 93% 30.14 in 2.5 mi Calm Calm - N/A   Overcast
4:51 PM 43.0 °F 40.3 °F 41.0 °F 93% 30.16 in 4.0 mi NW 4.6 mph - N/A   Overcast
6:51 PM 43.9 °F - 41.9 °F 93% 30.11 in 3.0 mi Calm Calm - N/A   Overcast
7:51 PM 54.0 °F - 50.9 °F 89% 30.07 in 4.0 mi Variable 5.8 mph - N/A   Overcast
7:58 PM 53.6 °F - 51.8 °F 94% 30.05 in 6.0 mi Variable 5.8 mph - N/A   Overcast
8:51 PM 55.9 °F - 52.0 °F 87% 30.04 in 10.0 mi Variable 5.8 mph - N/A   Overcast
9:51 PM 56.8 °F - 52.0 °F 84% 30.01 in 10.0 mi Variable 6.9 mph - N/A   Overcast
10:09 PM 57.2 °F - 51.8 °F 82% 30.00 in 10.0 mi Variable 5.8 mph - N/A   Overcast
10:51 PM 56.8 °F - 52.9 °F 87% 29.99 in 10.0 mi Variable 4.6 mph - N/A   Overcast
11:51 PM 56.8 °F - 52.9 °F 87% 29.95 in 10.0 mi Variable 6.9 mph - N/A   Overcast